Tracking 31027 objects as of 19-Jul-2025
HD Live streaming from Space Station
objects crossing your sky now

THORAD AGENA D DEB

Track THORAD AGENA D DEB now!
10-day predictions


NORAD ID: 42500
Int'l Code: 1970-025RE
Perigee: 1,057.1 km
Apogee: 1,072.9 km
Inclination: 99.5 °
Period: 106.4 minutes
Semi major axis: 7435 km
RCS: Unknown
Launch date: April 8, 1970
Source: United States (US)
Launch site: AIR FORCE WESTERN TEST RANGE (AFWTR)

Note: This is SATELLITE DEBRIS
Your satellite tracking list
DMSP 5D-2 F13 DEB
Track 1 satellite(s)




NASA's NSSDC Master Catalog

Two Line Element Set (TLE):
1 42500U 70025RE  25198.45038373  .00000025  00000-0  99092-4 0  9993
2 42500  99.4835  68.7470 0010664  12.2702 111.4831 13.53926144575581
Source of the keplerian elements: AFSPC